Location: Berlise
(49.6641°N, 4.1077°E)
Time: 22:35:07
(UTC+00:00)

Cosmos 2058 Rocket - Pass Details

Date: 27 January 2021
Orbit: 611 x 639 km, 82.5° (Epoch: 01 March)

Event Time Altitude Azimuth Distance (km) Brightness Sun altitude
Rises 06:14:06 0° 188° (S) 2,883 6.6 -11.1°
Reaches altitude 10° 06:16:18 10° 188° (S) 1,986 5.8 -10.8°
Maximum altitude 06:20:43 89° 100° (E) 633 3.1 -10.1°
Drops below altitude 10° 06:25:13 10° 10° (N) 2,021 5.6 -9.4°
Sets 06:27:28 0° 11° (N) 2,938 6.5 -9.0°
